Location: Poprad
(49.0500°N, 20.3000°E)
Time: 16:52:15
(UTC+01:00)

ISS - Visible Passes

Search period start: 24 January 2021 00:00
Search period end: 03 February 2021 00:00
Orbit: 418 x 421 km, 51.6° (Epoch: 24 January)

Date Brightness Start Highest point End Pass type
(mag) Time Alt. Az. Time Alt. Az. Time Alt. Az.
24 Jan -3.4 17:10:10 10° SW 17:13:27 55° SSE 17:16:27 12° ENE visible
24 Jan -2.5 18:46:58 10° W 18:49:25 40° WNW 18:49:25 40° WNW visible
25 Jan -3.6 17:59:32 10° W 18:02:54 66° NNW 18:04:00 38° NE visible
25 Jan -0.4 19:36:37 10° WNW 19:36:58 12° WNW 19:36:58 12° WNW visible
26 Jan -3.7 17:12:06 10° WSW 17:15:29 81° NNW 17:18:34 12° ENE visible
26 Jan -2.4 18:49:12 10° WNW 18:51:32 37° NW 18:51:32 37° NW visible
27 Jan -3.4 18:01:44 10° W 18:05:03 53° N 18:06:05 36° NE visible
27 Jan -0.4 19:38:42 10° WNW 19:39:04 12° WNW 19:39:04 12° WNW visible
28 Jan -3.4 17:14:15 10° W 17:17:35 57° N 17:20:39 12° ENE visible
28 Jan -2.5 18:51:17 10° WNW 18:53:37 39° NW 18:53:37 39° NW visible
29 Jan -3.5 18:03:51 10° WNW 18:07:11 56° N 18:08:11 38° ENE visible
29 Jan -0.4 19:40:43 10° WNW 19:41:09 13° WNW 19:41:09 13° WNW visible
30 Jan -3.4 17:16:22 10° WNW 17:19:41 52° N 17:22:47 12° E visible
30 Jan -2.7 18:53:16 10° WNW 18:55:46 46° WNW 18:55:46 46° WNW visible
31 Jan -3.8 18:05:50 10° WNW 18:09:14 78° NNE 18:10:25 37° E visible
31 Jan -0.4 19:42:53 10° W 19:43:24 13° W 19:43:24 13° W visible
01 Feb -3.6 17:18:22 10° WNW 17:21:45 64° NNE 17:25:06 10° E visible
01 Feb -2.5 18:55:17 10° WNW 18:58:07 39° SW 18:58:07 39° SW visible
02 Feb -3.3 18:07:47 10° WNW 18:11:06 59° SSW 18:12:57 24° SE visible
02 Feb -0.3 19:45:48 10° WSW 19:45:57 10° WSW 19:45:57 10° WSW visible
